| time (UTC) | temp F | wind direction | speed knots | gust knots | rain 1hr in | rain 24hr in | rain mn in | humidity % | barometer mb |
| 20260505041601 | 65 | 132 | 0.9 | 3.5 | 0.00 | 0.00 | 0.00 | 58 | 1008.3 |
| 20260505040617 | 65 | 121 | 0.9 | 1.7 | 0.00 | 0.00 | 0.00 | 58 | 1008.3 |
| 20260505035635 | 65 | 90 | 0.0 | 0.0 | 0.00 | 0.00 | 0.00 | 59 | 1008.3 |
| 20260505034627 | 65 | 111 | 0.9 | 1.7 | 0.00 | 0.00 | 0.00 | 58 | 1008.3 |
| 20260505033634 | 65 | 155 | 0.9 | 1.7 | 0.00 | 0.00 | 0.00 | 59 | 1008.2 |
| 20260505032632 | 65 | 90 | 0.0 | 0.9 | 0.00 | 0.00 | 0.00 | 58 | 1008.0 |
| 20260505031638 | 66 | 107 | 0.0 | 0.0 | 0.00 | 0.00 | 0.00 | 59 | 1007.9 |
| 20260505030656 | 66 | 176 | 0.0 | 0.0 | 0.00 | 0.00 | 0.00 | 56 | 1007.9 |
| 20260505025704 | 67 | 176 | 0.0 | 0.0 | 0.00 | 0.00 | 0.00 | 56 | 1007.9 |
| 20260505024658 | 67 | 176 | 0.0 | 0.0 | 0.00 | 0.00 | 0.00 | 54 | 1007.8 |
| 20260505023630 | 67 | 127 | 0.9 | 5.2 | 0.00 | 0.00 | 0.00 | 54 | 1007.9 |
| 20260505022611 | 68 | 176 | 0.9 | 5.2 | 0.00 | 0.00 | 0.00 | 53 | 1007.9 |
| 20260505021616 | 68 | 161 | 0.9 | 2.6 | 0.00 | 0.00 | 0.00 | 52 | 1007.7 |
| 20260505020607 | 68 | 171 | 0.9 | 4.3 | 0.00 | 0.00 | 0.00 | 51 | 1007.9 |
| 20260505015623 | 69 | 190 | 1.7 | 4.3 | 0.00 | 0.00 | 0.00 | 50 | 1007.8 |
| 20260505014648 | 69 | 155 | 0.9 | 1.7 | 0.00 | 0.00 | 0.00 | 49 | 1007.9 |
| 20260505012517 | 70 | 192 | 0.9 | 2.6 | 0.00 | 0.00 | 0.00 | 46 | 1007.6 |
| 20260505005217 | 71 | 175 | 1.7 | 4.3 | 0.00 | 0.00 | 0.00 | 44 | 1007.4 |
| 20260505004222 | 72 | 248 | 2.6 | 5.2 | 0.00 | 0.00 | 0.00 | 43 | 1007.4 |
| 20260505002012 | 72 | 188 | 2.6 | 6.1 | 0.00 | 0.00 | 0.00 | 42 | 1007.2 |
| 20260504235828 | 73 | 192 | 3.5 | 10.4 | 0.00 | 0.00 | 0.00 | 41 | 1007.1 |
| 20260504234829 | 74 | 200 | 3.5 | 11.3 | 0.00 | 0.00 | 0.00 | 41 | 1007.0 |
| 20260504233755 | 75 | 216 | 5.2 | 13.0 | 0.00 | 0.00 | 0.00 | 40 | 1006.9 |
| 20260504232731 | 75 | 217 | 5.2 | 13.0 | 0.00 | 0.00 | 0.00 | 39 | 1006.8 |
| 20260504231748 | 75 | 186 | 5.2 | 12.2 | 0.00 | 0.00 | 0.00 | 39 | 1006.7 |
| 20260504230729 | 76 | 208 | 6.1 | 11.3 | 0.00 | 0.00 | 0.00 | 39 | 1006.6 |
| 20260504225655 | 76 | 221 | 5.2 | 11.3 | 0.00 | 0.00 | 0.00 | 39 | 1006.6 |
| 20260504224707 | 76 | 217 | 5.2 | 13.9 | 0.00 | 0.00 | 0.00 | 39 | 1006.5 |
| 20260504223720 | 76 | 147 | 6.1 | 14.8 | 0.00 | 0.00 | 0.00 | 39 | 1006.6 |
| 20260504222650 | 76 | 178 | 6.1 | 14.8 | 0.00 | 0.00 | 0.00 | 38 | 1006.6 |
| 20260504221712 | 76 | 188 | 6.1 | 11.3 | 0.00 | 0.00 | 0.00 | 39 | 1006.6 |
| 20260504220646 | 76 | 157 | 5.2 | 13.0 | 0.00 | 0.00 | 0.00 | 39 | 1006.5 |
| 20260504215641 | 75 | 199 | 7.0 | 13.0 | 0.00 | 0.00 | 0.00 | 38 | 1006.5 |
| 20260504214641 | 75 | 194 | 5.2 | 13.0 | 0.00 | 0.00 | 0.00 | 39 | 1006.6 |
| 20260504213658 | 75 | 150 | 5.2 | 11.3 | 0.00 | 0.00 | 0.00 | 39 | 1006.7 |
| 20260504212720 | 75 | 186 | 7.0 | 11.3 | 0.00 | 0.00 | 0.00 | 37 | 1006.6 |
| 20260504210615 | 76 | 173 | 6.1 | 13.0 | 0.00 | 0.00 | 0.00 | 36 | 1006.6 |
| 20260504205605 | 76 | 186 | 5.2 | 10.4 | 0.00 | 0.00 | 0.00 | 36 | 1006.7 |
| 20260504204541 | 76 | 150 | 6.1 | 12.2 | 0.00 | 0.00 | 0.00 | 35 | 1006.6 |
| 20260504203545 | 77 | 161 | 5.2 | 13.0 | 0.00 | 0.00 | 0.00 | 34 | 1006.7 |
| 20260504202552 | 76 | 37 | 5.2 | 13.0 | 0.00 | 0.00 | 0.00 | 35 | 1006.8 |
| 20260504201525 | 76 | 193 | 5.2 | 12.2 | 0.00 | 0.00 | 0.00 | 35 | 1006.9 |
| 20260504195405 | 76 | 185 | 7.8 | 17.4 | 0.00 | 0.00 | 0.00 | 35 | 1007.1 |
| 20260504194429 | 76 | 163 | 7.8 | 15.6 | 0.00 | 0.00 | 0.00 | 35 | 1007.4 |
| 20260504193405 | 76 | 259 | 7.0 | 15.6 | 0.00 | 0.00 | 0.00 | 34 | 1007.4 |
| 20260504192401 | 75 | 174 | 7.8 | 14.8 | 0.00 | 0.00 | 0.00 | 35 | 1007.5 |
| 20260504191340 | 75 | 211 | 6.1 | 13.9 | 0.00 | 0.00 | 0.00 | 34 | 1007.8 |
| 20260504190328 | 75 | 234 | 7.0 | 13.9 | 0.00 | 0.00 | 0.00 | 33 | 1007.8 |
| 20260504184238 | 75 | 208 | 5.2 | 13.0 | 0.00 | 0.00 | 0.00 | 34 | 1008.0 |
| 20260504175819 | 74 | 232 | 5.2 | 16.5 | 0.00 | 0.00 | 0.00 | 35 | 1008.8 |
| 20260504173639 | 73 | 199 | 5.2 | 12.2 | 0.00 | 0.00 | 0.00 | 37 | 1009.1 |
| 20260504171532 | 72 | 223 | 5.2 | 13.9 | 0.00 | 0.00 | 0.00 | 38 | 1009.3 |
| 20260504170525 | 71 | 142 | 5.2 | 13.0 | 0.00 | 0.00 | 0.00 | 39 | 1009.5 |
| 20260504160319 | 69 | 179 | 5.2 | 12.2 | 0.00 | 0.00 | 0.00 | 41 | 1010.6 |
| 20260504150249 | 65 | 186 | 5.2 | 11.3 | 0.00 | 0.00 | 0.00 | 44 | 1011.4 |
| 20260504141310 | 61 | 182 | 2.6 | 7.8 | 0.00 | 0.00 | 0.00 | 48 | 1011.7 |
| 20260504140322 | 60 | 150 | 0.9 | 3.5 | 0.00 | 0.00 | 0.00 | 51 | 1012.0 |
| 20260504130249 | 50 | 265 | 0.0 | 0.9 | 0.00 | 0.00 | 0.00 | 67 | 1012.5 |
| 20260504110320 | 38 | 140 | 0.0 | 0.0 | 0.00 | 0.00 | 0.00 | 85 | 1013.0 |
| 20260504100232 | 37 | 140 | 0.0 | 0.0 | 0.00 | 0.00 | 0.00 | 85 | 1013.2 |
| 20260504081058 | 37 | 140 | 0.0 | 0.0 | 0.00 | 0.00 | 0.00 | 84 | 1013.5 |
| 20260504070109 | 38 | 140 | 0.0 | 0.0 | 0.00 | 0.00 | 0.00 | 80 | 1013.8 |
| 20260504050608 | 43 | 146 | 0.0 | 0.9 | 0.00 | 0.00 | 0.00 | 72 | 1014.1 |
| 20260504045600 | 43 | 153 | 0.0 | 0.0 | 0.00 | 0.00 | 0.00 | 72 | 1014.1 |
| 20260504044603 | 43 | 154 | 0.0 | 0.0 | 0.00 | 0.00 | 0.00 | 72 | 1014.1 |
| 20260504043549 | 44 | 154 | 0.0 | 0.0 | 0.00 | 0.00 | 0.00 | 72 | 1014.0 |
| 20260504042515 | 44 | 150 | 0.0 | 0.0 | 0.00 | 0.00 | 0.00 | 71 | 1014.0 |